Regional Weather Roundup
Issued by NWS Northern Indiana

Home | Current Version | Previous Version | Graphics & Text | Print | Product List | Glossary On
Versions: 1 2 3 4 5 6 7 8 9 10 11 12 13 14 15 16 17 18 19 20 21 22 23 24 25 26 27 28 29 30 31 32 33 34 35 36 37 38 39 40 41 42 43 44 45 46 47 48 49 50
000
ASUS43 KIWX 031810
RWRIWX

KIWX WEATHER ROUNDUP
NATIONAL WEATHER SERVICE NORTHERN INDIANA
200 PM EDT SUN MAY 03 2015

NOTE: "FAIR" INDICATES FEW OR NO CLOUDS BELOW 12,000 FEET WITH NO
SIGNIFICANT WEATHER AND/OR OBSTRUCTIONS TO VISIBILITY.

* THESE STATIONS ARE NOT UNDER NWS QUALITY CONTROL. THEY ALSO MAY NOT
  REPORT WEATHER SUCH AS PRECIPITATION OR FOG.

INZ001>027-031900-
NORTHERN INDIANA

CITY           SKY/WX    TMP DP  RH WIND       PRES   REMARKS
GARY*          PTSUNNY   81 N/A N/A S15G28    29.96F
VALPARAISO     PTSUNNY   78  42  27 S16G24    30.00F
6HR MIN TEMP:  57; 6HR MAX TEMP:  78;

MICHIGAN CITY* CLOUDY    77  34  20 SW15G21   29.99F
LAPORTE*       PTSUNNY   79  43  28 SW18G24   30.00F
6HR MIN TEMP:  57; 6HR MAX TEMP:  80;

KNOX*          MOSUNNY   81 -13   2 S15G24    29.99F
SOUTH BEND     MOSUNNY   79  41  25 SW13G25   30.01F
6HR MIN TEMP:  58; 6HR MAX TEMP:  80;

ELKHART*       MOSUNNY   77  37  24 SW12G18   30.01F
GOSHEN         SUNNY     77  46  33 SW16G25   30.02F
6HR MIN TEMP:  57; 6HR MAX TEMP:  77;

MONTICELLO*    MOSUNNY   75  49  39 SW14      30.02F
6HR MIN TEMP:  57; 6HR MAX TEMP:  76;

LOGANSPORT*    MOSUNNY   75  39  27 S9G20     30.04F
ROCHESTER*     SUNNY     79  45  29 S12G20    30.04F
WARSAW*        SUNNY     75  45  33 SW12      30.04F
ANGOLA*        SUNNY     79  70  73 SW15      30.04S
FORT WAYNE     MOSUNNY   75  46  35 SW14G26   30.06F
6HR MIN TEMP:  53; 6HR MAX TEMP:  76;

HUNTINGTON*    SUNNY     74  44  35 SW13G20   30.06F
6HR MIN TEMP:  54; 6HR MAX TEMP:  74;

PERU/GRISSOM   MOSUNNY   76  50  40 S12G20    30.04F
6HR MIN TEMP:  56; 6HR MAX TEMP:  76;

MARION*        SUNNY     75  42  30 S15G21    30.08F
6HR MIN TEMP:  29; 6HR MAX TEMP:  75;


$$
INZ028>050-031900-
CENTRAL INDIANA

CITY           SKY/WX    TMP DP  RH WIND       PRES   REMARKS
LAFAYETTE      PTSUNNY   76  45  33 S10G21    30.02F
6HR MIN TEMP:  54; 6HR MAX TEMP:  76;

MUNCIE*        MOSUNNY   75  46  35 SW16G23   30.08F
6HR MIN TEMP:  57; 6HR MAX TEMP:  75;

INDIANAPOLIS   PTSUNNY   75  48  38 SW7       30.05F
6HR MIN TEMP:  55; 6HR MAX TEMP:  75;


$$
MIZ043>046-050>051-056>058-064>065-071>073-077>080-031900-
SOUTHWEST LOWER MICHIGAN

CITY           SKY/WX    TMP DP  RH WIND       PRES   REMARKS
BATTLE CREEK   MOSUNNY   77  45  32 SW16G26   30.02F
6HR MIN TEMP:  56; 6HR MAX TEMP:  77;

BENTON HARBOR  PTSUNNY   75  46  35 SW15G23   29.99S
6HR MIN TEMP:  57; 6HR MAX TEMP:  77;

COLDWATER*     PTSUNNY   74  41  30 SW13G18   30.03F
6HR MIN TEMP:  57; 6HR MAX TEMP:  76;

HILLSDALE*     SUNNY     76  41  28 S10       30.05S
6HR MIN TEMP:  60; 6HR MAX TEMP:  77;

HOLLAND        MOSUNNY   76  43  30 SW23G29   29.99F
6HR MIN TEMP:  62; 6HR MAX TEMP:  78;

GRAND RAPIDS   PTSUNNY   77  44  30 SW15G25   29.99F
6HR MIN TEMP:  59; 6HR MAX TEMP:  78;

KALAMAZOO      MOSUNNY   79  45  29 S12G23    30.01F
6HR MIN TEMP:  56; 6HR MAX TEMP:  79;

STURGIS*       MOSUNNY   75  46  35 S12G25    30.02F
THREE RIVERS*  FAIR      76  45  33 SW14G22   30.02F

$$
OHZ001>008-015>018-024>025-031900-
NORTHWEST OHIO

CITY           SKY/WX    TMP DP  RH WIND       PRES   REMARKS
WAUSEON*       FAIR      77  43  29 SW15G22   30.05S
DEFIANCE       MOSUNNY   77  44  30 MISG      30.05F
6HR MIN TEMP:  55; 6HR MAX TEMP:  77;

FINDLAY        MOSUNNY   77  44  30 SW17      30.07F
6HR MIN TEMP:  56; 6HR MAX TEMP:  77;

TOLEDO EXPRESS SUNNY     77  40  26 SW17G23   30.05F
6HR MIN TEMP:  54; 6HR MAX TEMP:  77;

TOLEDO METCALF SUNNY     77  39  25 SW16G25   30.05F
6HR MIN TEMP:  56; 6HR MAX TEMP:  78;

LIMA           MOSUNNY   74  46  36 SW12G25   30.08F
6HR MIN TEMP:  54; 6HR MAX TEMP:  75;


$$
AND FOR LAKE MICHIGAN COASTAL AND OPEN LAKE BUOY OBSERVATIONS

STATION/POSITION TEMP    WIND        PRES    VSBY  WAVE
                 AIR SEA DIR/SP/G                  HT/PER
                 (F)     (DEG/KT/KT) (MB)    (MI)  (FT/S)
CALUMET HARBOR    76     200/ 12/ 19   N/A
MICHIGAN CITY     74     200/ 15/ 19   N/A
BURNS HARBOR      74     200/ 16/ 21 1015.9S
SAINT JOSEPH      64     180/  8/ 10 1016.3S
4 MI NW BRIDGMAN  57 49  270/  6/  6   N/A           1
MICHIGAN CITY     64 50  240/ 12/ 14   N/A           1/ 3
MICHIGAN CITY CG     46              1017.8      6   1

$$
&&


USA.gov is the U.S. government's official web portal to all federal, state and local government web resources and services.